UAE608 LPPR-SPJC

Flight info

Callsign UAE608
Flight time N/A
Altitude 32000
Route ASMOV DCT DETOX/M083F320 DCT LENSI DCT 34N030W/M083F340 27N040W 18N050W/N0485F360 DCT BOXIT DCT EGEMA DCT POVLA DCT VUMPI DCT DEXEM/N0481F380 DCT EPLAG DCT MULMA UM527 VADOS
Aircraft B77W/H-SDE1E2E3FGHIJ2J3J4J5M1RWXY/LB1D1

Departure

Time 2026-05-03 23:05
Airport Francisco de Sá Carneiro Airport (LPPR)

Arrival

Time N/A
Airport Jorge Chávez International Airport (SPJC)
Time Latitude Longitude Altitude Speed Heading
2026-05-03 22:41 41.23431 -8.67282 239 ft 0 kts 60°
2026-05-03 22:58 41.23430 -8.67282 239 ft 0 kts 60°
2026-05-03 22:59 41.23421 -8.67300 239 ft 2 kts 35°
2026-05-03 22:59 41.23407 -8.67312 240 ft 2 kts 17°
2026-05-03 22:59 41.23391 -8.67316 240 ft 2 kts 353°
2026-05-03 22:59 41.23375 -8.67311 240 ft 2 kts 333°
2026-05-03 23:00 41.23362 -8.67298 241 ft 2 kts 307°
2026-05-03 23:00 41.23356 -8.67286 241 ft 1 kts 268°
2026-05-03 23:00 41.23356 -8.67285 241 ft 0 kts 265°
2026-05-03 23:02 41.23356 -8.67286 241 ft 2 kts 265°
2026-05-03 23:02 41.23353 -8.67319 241 ft 4 kts 261°
2026-05-03 23:02 41.23347 -8.67354 241 ft 4 kts 258°
2026-05-03 23:02 41.23343 -8.67377 241 ft 4 kts 257°
2026-05-03 23:03 41.23337 -8.67413 241 ft 4 kts 257°
2026-05-03 23:03 41.23331 -8.67448 241 ft 4 kts 258°
2026-05-03 23:03 41.23325 -8.67485 241 ft 6 kts 258°
2026-05-03 23:03 41.23311 -8.67572 241 ft 2 kts 258°
2026-05-03 23:04 41.23307 -8.67598 242 ft 9 kts 258°
2026-05-03 23:04 41.23305 -8.67701 243 ft 4 kts 301°
2026-05-03 23:04 41.23387 -8.67752 241 ft 25 kts 345°
2026-05-03 23:04 41.23778 -8.67856 227 ft 102 kts 348°
2026-05-03 23:05 41.24792 -8.68124 228 ft 190 kts 350°
2026-05-03 23:05 41.26121 -8.68445 1361 ft 189 kts 348°
2026-05-03 23:05 41.27513 -8.68810 2080 ft 222 kts 347°
2026-05-03 23:05 41.29084 -8.69230 2663 ft 238 kts 347°
2026-05-03 23:06 41.30758 -8.69681 3113 ft 252 kts 347°
2026-05-03 23:06 41.32519 -8.70155 3750 ft 261 kts 347°
2026-05-03 23:06 41.34293 -8.70634 4481 ft 266 kts 347°
2026-05-03 23:06 41.36121 -8.71128 5260 ft 269 kts 346°
2026-05-03 23:07 41.37968 -8.71627 6028 ft 273 kts 346°
2026-05-03 23:07 41.39749 -8.72401 6623 ft 273 kts 324°
2026-05-03 23:07 41.41085 -8.74158 7245 ft 271 kts 297°
2026-05-03 23:07 41.41652 -8.76525 7966 ft 269 kts 271°
2026-05-03 23:08 41.41357 -8.78960 8641 ft 269 kts 245°
2026-05-03 23:08 41.40326 -8.81039 9325 ft 270 kts 226°
2026-05-03 23:08 41.38967 -8.82819 9982 ft 276 kts 224°
2026-05-03 23:08 41.37543 -8.84582 10501 ft 285 kts 223°
2026-05-03 23:09 41.36016 -8.86451 10674 ft 309 kts 223°
2026-05-03 23:09 41.34407 -8.88420 10856 ft 331 kts 223°
2026-05-03 23:09 41.32655 -8.90570 11073 ft 351 kts 223°
2026-05-03 23:09 41.31002 -8.93010 11477 ft 359 kts 239°
2026-05-03 23:10 41.30139 -8.96147 12117 ft 366 kts 261°
2026-05-03 23:10 41.29982 -8.99540 12910 ft 368 kts 267°
2026-05-03 23:10 41.29909 -9.02954 13676 ft 372 kts 268°
2026-05-03 23:10 41.29842 -9.06417 14453 ft 375 kts 267°
2026-05-03 23:11 41.29776 -9.09850 15214 ft 376 kts 267°
2026-05-03 23:11 41.29704 -9.13356 15976 ft 379 kts 267°
2026-05-03 23:11 41.29627 -9.16877 16710 ft 382 kts 267°
2026-05-03 23:11 41.29543 -9.20433 17433 ft 385 kts 266°
2026-05-03 23:12 41.29456 -9.23975 18150 ft 389 kts 266°
2026-05-03 23:12 41.29364 -9.27597 18805 ft 392 kts 266°
2026-05-03 23:12 41.29269 -9.31227 19446 ft 394 kts 266°
2026-05-03 23:12 41.29172 -9.34883 20089 ft 396 kts 266°
2026-05-03 23:13 41.29072 -9.38572 20716 ft 399 kts 266°
2026-05-03 23:13 41.28971 -9.42230 21329 ft 401 kts 266°
2026-05-03 23:13 41.28868 -9.45950 21934 ft 404 kts 266°
2026-05-03 23:13 41.28762 -9.49711 22518 ft 407 kts 266°
2026-05-03 23:14 41.28654 -9.53500 23105 ft 410 kts 266°
2026-05-03 23:14 41.28545 -9.57267 23678 ft 412 kts 266°
2026-05-03 23:14 41.28434 -9.61090 24146 ft 415 kts 266°
2026-05-03 23:14 41.28320 -9.64940 24613 ft 418 kts 266°
2026-05-03 23:15 41.28205 -9.68816 25078 ft 420 kts 266°
2026-05-03 23:15 41.28088 -9.72718 25541 ft 422 kts 266°
2026-05-03 23:15 41.27970 -9.76581 25982 ft 425 kts 266°
2026-05-03 23:15 41.27848 -9.80524 26393 ft 428 kts 266°
2026-05-03 23:16 41.27725 -9.84487 26815 ft 430 kts 266°
2026-05-03 23:16 41.27599 -9.88479 27237 ft 432 kts 266°
2026-05-03 23:16 41.27471 -9.92494 27644 ft 435 kts 266°
2026-05-03 23:16 41.27342 -9.96526 28036 ft 437 kts 266°
2026-05-03 23:17 41.27211 -10.00549 28407 ft 440 kts 266°
2026-05-03 23:17 41.27077 -10.04620 28760 ft 442 kts 266°
2026-05-03 23:17 41.26941 -10.08715 29107 ft 444 kts 266°
2026-05-03 23:17 41.26803 -10.12824 29480 ft 445 kts 266°
2026-05-03 23:18 41.26663 -10.16948 29950 ft 444 kts 266°
2026-05-03 23:18 41.26523 -10.21048 30410 ft 442 kts 266°
2026-05-03 23:18 41.26383 -10.25092 30766 ft 442 kts 266°
2026-05-03 23:18 41.26240 -10.29192 31074 ft 443 kts 266°
2026-05-03 23:19 41.26095 -10.33285 31394 ft 443 kts 266°
2026-05-03 23:19 41.25950 -10.37327 31726 ft 442 kts 266°
2026-05-03 23:19 41.25803 -10.41425 32010 ft 443 kts 266°
2026-05-03 23:20 41.25502 -10.49619 32097 ft 443 kts 266°
2026-05-03 23:20 41.25198 -10.57774 32094 ft 443 kts 266°
2026-05-03 23:21 41.24886 -10.65964 32093 ft 443 kts 266°
2026-05-03 23:21 41.24569 -10.74163 32106 ft 444 kts 266°
2026-05-03 23:22 41.24082 -10.86437 32103 ft 444 kts 266°
2026-05-03 23:22 41.23751 -10.94597 32098 ft 445 kts 266°
2026-05-03 23:23 41.23412 -11.02824 32097 ft 445 kts 266°
2026-05-03 23:23 41.23069 -11.11009 32103 ft 446 kts 266°
2026-05-03 23:24 41.22717 -11.19249 32105 ft 446 kts 266°
2026-05-03 23:24 41.22361 -11.27446 32105 ft 446 kts 266°
2026-05-03 23:25 41.22180 -11.31563 32247 ft 447 kts 267°
2026-05-03 23:25 41.21996 -11.35712 32182 ft 451 kts 267°
2026-05-03 23:25 41.21622 -11.44066 32117 ft 456 kts 267°
2026-05-03 23:26 41.21239 -11.52482 32113 ft 456 kts 267°
2026-05-03 23:26 41.20851 -11.60852 32109 ft 456 kts 267°
2026-05-03 23:27 41.20455 -11.69271 32111 ft 456 kts 267°
2026-05-03 23:27 41.20052 -11.77714 32110 ft 457 kts 267°
2026-05-03 23:28 41.19646 -11.86097 32111 ft 457 kts 267°
2026-05-03 23:28 41.19231 -11.94519 32110 ft 457 kts 267°
2026-05-03 23:29 41.18809 -12.02972 32114 ft 457 kts 267°
2026-05-03 23:29 41.18383 -12.11374 32114 ft 458 kts 267°
2026-05-03 23:30 41.17949 -12.19803 32118 ft 458 kts 267°
2026-05-03 23:30 41.17511 -12.28212 32116 ft 458 kts 268°
2026-05-03 23:31 41.17063 -12.36669 32124 ft 458 kts 268°
2026-05-03 23:31 41.16609 -12.45129 32123 ft 459 kts 268°
2026-05-03 23:32 41.16152 -12.53534 32134 ft 459 kts 268°
2026-05-03 23:32 41.15686 -12.62002 32119 ft 459 kts 268°
2026-05-03 23:33 41.15212 -12.70475 32124 ft 459 kts 268°
2026-05-03 23:33 41.14737 -12.78872 32121 ft 459 kts 268°
2026-05-03 23:34 41.14251 -12.87344 32120 ft 460 kts 268°
2026-05-03 23:34 41.13759 -12.95815 32129 ft 460 kts 268°
2026-05-03 23:35 41.13262 -13.04275 32130 ft 460 kts 268°
2026-05-03 23:35 41.12760 -13.12705 32137 ft 460 kts 268°
2026-05-03 23:36 41.12249 -13.21179 32135 ft 460 kts 268°
2026-05-03 23:36 41.11734 -13.29608 32136 ft 460 kts 268°
2026-05-03 23:37 41.11210 -13.38102 32140 ft 461 kts 268°
2026-05-03 23:37 41.10683 -13.46528 32140 ft 461 kts 268°
2026-05-03 23:38 41.10148 -13.54988 32141 ft 461 kts 268°
2026-05-03 23:38 41.09605 -13.63475 32138 ft 462 kts 268°
2026-05-03 23:39 41.09057 -13.71930 32145 ft 462 kts 269°
2026-05-03 23:39 41.08500 -13.80434 32141 ft 462 kts 269°
2026-05-03 23:40 41.07941 -13.88883 32145 ft 462 kts 269°
2026-05-03 23:40 41.07371 -13.97382 32145 ft 462 kts 269°
2026-05-03 23:41 41.06799 -14.05831 32145 ft 462 kts 269°
2026-05-03 23:41 41.06216 -14.14351 32146 ft 462 kts 269°
2026-05-03 23:42 41.05631 -14.22795 32152 ft 462 kts 269°
2026-05-03 23:42 41.05041 -14.31241 32153 ft 462 kts 269°
2026-05-03 23:43 41.04441 -14.39730 32153 ft 462 kts 269°
2026-05-03 23:43 41.03838 -14.48168 32151 ft 462 kts 269°
2026-05-03 23:44 41.03225 -14.56659 32163 ft 462 kts 269°
2026-05-03 23:44 41.02607 -14.65144 32157 ft 462 kts 269°
2026-05-03 23:45 41.01985 -14.73583 32151 ft 462 kts 269°
2026-05-03 23:45 41.01354 -14.82070 32158 ft 462 kts 269°
2026-05-03 23:46 41.00722 -14.90496 32159 ft 462 kts 269°
2026-05-03 23:46 40.99683 -14.98926 32152 ft 468 kts 259°
2026-05-03 23:47 40.97476 -15.07047 32154 ft 475 kts 250°
2026-05-03 23:47 40.94566 -15.14926 32160 ft 477 kts 249°
2026-05-03 23:48 40.91611 -15.22782 32161 ft 477 kts 249°
2026-05-03 23:48 40.88678 -15.30624 32164 ft 477 kts 249°
2026-05-03 23:49 40.85746 -15.38501 32162 ft 476 kts 249°
2026-05-03 23:49 40.82839 -15.46306 32170 ft 477 kts 249°
2026-05-03 23:50 40.80395 -15.52852 32176 ft 477 kts 249°
2026-05-03 23:50 40.76961 -15.62020 32176 ft 477 kts 249°
2026-05-03 23:51 40.74025 -15.69838 32175 ft 477 kts 249°
2026-05-03 23:51 40.71065 -15.77696 32172 ft 478 kts 249°
2026-05-03 23:52 40.68115 -15.85505 32171 ft 478 kts 249°
2026-05-03 23:52 40.65147 -15.93342 32171 ft 478 kts 249°
2026-05-03 23:53 40.62675 -15.99853 32179 ft 478 kts 249°
2026-05-03 23:53 40.59685 -16.07711 32190 ft 478 kts 249°
2026-05-03 23:54 40.56698 -16.15539 32187 ft 478 kts 249°
2026-05-03 23:54 40.53711 -16.23346 32186 ft 478 kts 249°
2026-05-03 23:55 40.50732 -16.31110 32182 ft 478 kts 249°
2026-05-03 23:55 40.47731 -16.38913 32179 ft 478 kts 249°
2026-05-03 23:56 40.44741 -16.46667 32185 ft 478 kts 249°
2026-05-03 23:56 40.41732 -16.54449 32188 ft 477 kts 248°
2026-05-03 23:57 40.38714 -16.62236 32188 ft 477 kts 248°
2026-05-03 23:57 40.35694 -16.70006 32191 ft 477 kts 248°
2026-05-03 23:58 40.32665 -16.77778 32192 ft 477 kts 248°
2026-05-03 23:58 40.29744 -16.85255 32190 ft 477 kts 248°
2026-05-03 23:59 40.26706 -16.93008 32208 ft 477 kts 248°
2026-05-03 23:59 40.23687 -17.00696 32203 ft 477 kts 247°
2026-05-04 00:00 40.20645 -17.08423 32198 ft 476 kts 247°
2026-05-04 00:00 40.17601 -17.16135 32204 ft 476 kts 247°
2026-05-04 00:01 40.14572 -17.23786 32204 ft 476 kts 247°
2026-05-04 00:01 40.11524 -17.31471 32203 ft 475 kts 247°
2026-05-04 00:02 40.08483 -17.39114 32207 ft 475 kts 246°
2026-05-04 00:02 40.05423 -17.46788 32212 ft 475 kts 246°
2026-05-04 00:03 40.02362 -17.54443 32208 ft 475 kts 246°
2026-05-04 00:03 39.99313 -17.62049 32206 ft 475 kts 246°
2026-05-04 00:04 39.96238 -17.69701 32210 ft 475 kts 246°
2026-05-04 00:04 39.93159 -17.77343 32207 ft 475 kts 246°
2026-05-04 00:05 39.90098 -17.84921 32212 ft 475 kts 246°
2026-05-04 00:05 39.87017 -17.92533 32215 ft 475 kts 246°
2026-05-04 00:06 39.83922 -18.00157 32219 ft 475 kts 245°
2026-05-04 00:06 39.80845 -18.07719 32221 ft 475 kts 245°
2026-05-04 00:07 39.77766 -18.15265 32222 ft 475 kts 245°
2026-05-04 00:07 39.74657 -18.22866 32222 ft 475 kts 245°
2026-05-04 00:08 39.71565 -18.30408 32224 ft 475 kts 245°
2026-05-04 00:08 39.68450 -18.37987 32227 ft 475 kts 245°
2026-05-04 00:09 39.65329 -18.45562 32233 ft 475 kts 245°
2026-05-04 00:09 39.62225 -18.53077 32229 ft 475 kts 245°
2026-05-04 00:10 39.59090 -18.60649 32220 ft 475 kts 245°
2026-05-04 00:10 39.55971 -18.68164 32230 ft 475 kts 245°
2026-05-04 00:11 39.52834 -18.75701 32229 ft 475 kts 245°
2026-05-04 00:11 39.49694 -18.83229 32233 ft 475 kts 245°
2026-05-04 00:12 39.46543 -18.90765 32235 ft 475 kts 245°
2026-05-04 00:12 39.43403 -18.98255 32233 ft 475 kts 244°
2026-05-04 00:13 39.40245 -19.05772 32234 ft 475 kts 244°
2026-05-04 00:13 39.37068 -19.13313 32239 ft 475 kts 244°
2026-05-04 00:14 39.33917 -19.20776 32236 ft 475 kts 244°
2026-05-04 00:14 39.30741 -19.28280 32238 ft 476 kts 244°
2026-05-04 00:15 39.27557 -19.35785 32237 ft 476 kts 244°
2026-05-04 00:15 39.24383 -19.43247 32233 ft 476 kts 244°
2026-05-04 00:16 39.21184 -19.50751 32244 ft 476 kts 244°
2026-05-04 00:16 39.18001 -19.58199 32246 ft 476 kts 244°
2026-05-04 00:17 39.14795 -19.65683 32241 ft 476 kts 244°
2026-05-04 00:17 39.11603 -19.73118 32244 ft 477 kts 244°
2026-05-04 00:18 39.08385 -19.80595 32246 ft 477 kts 244°
2026-05-04 00:18 39.05172 -19.88043 32245 ft 477 kts 244°
2026-05-04 00:19 39.01931 -19.95541 32246 ft 478 kts 244°
2026-05-04 00:19 38.98716 -20.02970 32245 ft 478 kts 244°
2026-05-04 00:20 38.95503 -20.10455 32251 ft 478 kts 244°
2026-05-04 00:20 38.92290 -20.17948 32249 ft 478 kts 244°
2026-05-04 00:21 38.89072 -20.25428 32253 ft 479 kts 244°
2026-05-04 00:21 38.85845 -20.32906 32247 ft 479 kts 244°
2026-05-04 00:22 38.82628 -20.40339 32256 ft 479 kts 244°
2026-05-04 00:22 38.79380 -20.47827 32251 ft 479 kts 244°
2026-05-04 00:23 38.76151 -20.55252 32249 ft 479 kts 244°
2026-05-04 00:23 38.72891 -20.62732 32255 ft 479 kts 243°
2026-05-04 00:24 38.69628 -20.70202 32254 ft 479 kts 243°
2026-05-04 00:24 38.66382 -20.77615 32257 ft 479 kts 243°
2026-05-04 00:25 38.63105 -20.85079 32255 ft 480 kts 243°
2026-05-04 00:25 38.59853 -20.92472 32254 ft 480 kts 243°
2026-05-04 00:26 38.56571 -20.99914 32254 ft 480 kts 243°
2026-05-04 00:26 38.53284 -21.07350 32255 ft 479 kts 243°
2026-05-04 00:27 38.50013 -21.14732 32270 ft 479 kts 243°
2026-05-04 00:27 38.46722 -21.22142 32265 ft 479 kts 243°
2026-05-04 00:28 38.43438 -21.29520 32259 ft 479 kts 243°
2026-05-04 00:28 38.40141 -21.36910 32261 ft 479 kts 242°
2026-05-04 00:29 38.36852 -21.44263 32261 ft 479 kts 242°
2026-05-04 00:29 38.33540 -21.51653 32261 ft 479 kts 242°
2026-05-04 00:30 38.30250 -21.58977 32259 ft 478 kts 242°
2026-05-04 00:30 38.26930 -21.66349 32261 ft 478 kts 242°
2026-05-04 00:31 38.23634 -21.73652 32264 ft 478 kts 242°
2026-05-04 00:31 38.20316 -21.80986 32264 ft 477 kts 242°
2026-05-04 00:32 38.16993 -21.88316 32264 ft 477 kts 242°
2026-05-04 00:32 38.13684 -21.95597 32260 ft 477 kts 242°
2026-05-04 00:33 38.08694 -22.06547 32261 ft 476 kts 242°
2026-05-04 00:34 38.05384 -22.13789 32263 ft 476 kts 242°
2026-05-04 00:34 38.02057 -22.21054 32263 ft 476 kts 242°
2026-05-04 00:35 37.98720 -22.28323 32262 ft 475 kts 241°
2026-05-04 00:35 37.95407 -22.35523 32264 ft 475 kts 241°
2026-05-04 00:36 37.92064 -22.42771 32263 ft 475 kts 241°
2026-05-04 00:36 37.88744 -22.49956 32262 ft 474 kts 241°
2026-05-04 00:37 37.85410 -22.57152 32264 ft 474 kts 241°
2026-05-04 00:37 37.82071 -22.64344 32262 ft 473 kts 241°
2026-05-04 00:38 37.78734 -22.71517 32262 ft 473 kts 241°
2026-05-04 00:38 37.75411 -22.78646 32262 ft 472 kts 241°
2026-05-04 00:39 37.72072 -22.85790 32269 ft 471 kts 241°
2026-05-04 00:39 37.69293 -22.91725 32255 ft 471 kts 240°
2026-05-04 00:40 37.65415 -22.99988 32258 ft 470 kts 240°
2026-05-04 00:40 37.62637 -23.05896 32266 ft 470 kts 240°
2026-05-04 00:41 37.59292 -23.12996 32258 ft 469 kts 240°
2026-05-04 00:41 37.55952 -23.20070 32264 ft 469 kts 240°
2026-05-04 00:42 37.52628 -23.27093 32262 ft 468 kts 240°
2026-05-04 00:42 37.49280 -23.34153 32263 ft 468 kts 240°
2026-05-04 00:43 37.45931 -23.41199 32262 ft 468 kts 240°
2026-05-04 00:43 37.42596 -23.48200 32262 ft 467 kts 240°
2026-05-04 00:44 37.39246 -23.55219 32261 ft 467 kts 240°
2026-05-04 00:44 37.35918 -23.62176 32261 ft 466 kts 240°
2026-05-04 00:45 37.32566 -23.69169 32260 ft 465 kts 240°
2026-05-04 00:45 37.29242 -23.76090 32262 ft 464 kts 240°
2026-05-04 00:46 37.25900 -23.83031 32258 ft 464 kts 240°
2026-05-04 00:46 37.22548 -23.89981 32262 ft 463 kts 240°
2026-05-04 00:47 37.19233 -23.96840 32258 ft 463 kts 240°
2026-05-04 00:47 37.15877 -24.03768 32260 ft 462 kts 240°
2026-05-04 00:48 37.12559 -24.10602 32259 ft 461 kts 240°
2026-05-04 00:48 37.09214 -24.17479 32262 ft 461 kts 240°
2026-05-04 00:49 37.05878 -24.24325 32260 ft 460 kts 240°
2026-05-04 00:49 37.02560 -24.31118 32258 ft 459 kts 240°
2026-05-04 00:50 36.99218 -24.37946 32256 ft 458 kts 240°
2026-05-04 00:50 36.95878 -24.44758 32252 ft 458 kts 240°
2026-05-04 00:51 36.92553 -24.51523 32251 ft 457 kts 240°
2026-05-04 00:51 36.89222 -24.58288 32252 ft 456 kts 240°
2026-05-04 00:52 36.85905 -24.65011 32250 ft 456 kts 240°
2026-05-04 00:52 36.82575 -24.71746 32251 ft 455 kts 240°
2026-05-04 00:53 36.79244 -24.78471 32253 ft 455 kts 240°
2026-05-04 00:53 36.75932 -24.85142 32253 ft 454 kts 240°
2026-05-04 00:54 36.72598 -24.91846 32250 ft 454 kts 240°
2026-05-04 00:54 36.69280 -24.98503 32245 ft 454 kts 240°
2026-05-04 00:55 36.65935 -25.05203 32249 ft 454 kts 240°
2026-05-04 00:55 36.62597 -25.11875 32250 ft 454 kts 240°
2026-05-04 00:56 36.59269 -25.18512 32246 ft 454 kts 240°
2026-05-04 00:56 36.55913 -25.25193 32251 ft 454 kts 240°
2026-05-04 00:57 36.52580 -25.31815 32243 ft 454 kts 240°
2026-05-04 00:57 36.49219 -25.38480 32245 ft 454 kts 240°
2026-05-04 00:58 36.45867 -25.45114 32244 ft 454 kts 240°
2026-05-04 00:58 36.42496 -25.51773 32241 ft 455 kts 240°
2026-05-04 00:59 36.39122 -25.58423 32240 ft 455 kts 240°
2026-05-04 00:59 36.35759 -25.65040 32235 ft 455 kts 240°
2026-05-04 01:00 36.32374 -25.71688 32235 ft 455 kts 240°
2026-05-04 01:00 36.28975 -25.78349 32238 ft 456 kts 240°
2026-05-04 01:01 36.25594 -25.84962 32232 ft 456 kts 240°
2026-05-04 01:01 36.22189 -25.91609 32230 ft 456 kts 240°
2026-05-04 01:02 36.18796 -25.98220 32233 ft 457 kts 240°
2026-05-04 01:02 36.15382 -26.04859 32239 ft 457 kts 240°
2026-05-04 01:03 36.11971 -26.11479 32230 ft 458 kts 239°
2026-05-04 01:03 36.08539 -26.18127 32228 ft 458 kts 239°
2026-05-04 01:04 36.05109 -26.24758 32226 ft 458 kts 239°
2026-05-04 01:04 36.01664 -26.31405 32237 ft 459 kts 239°
2026-05-04 01:05 35.98224 -26.38030 32219 ft 459 kts 239°
2026-05-04 01:05 35.94772 -26.44665 32211 ft 459 kts 239°
2026-05-04 01:06 35.91324 -26.51280 32210 ft 460 kts 239°
2026-05-04 01:06 35.87852 -26.57927 32224 ft 460 kts 239°
2026-05-04 01:07 35.84392 -26.64539 32223 ft 461 kts 239°
2026-05-04 01:07 35.80899 -26.71200 32211 ft 461 kts 239°
2026-05-04 01:08 35.77435 -26.77795 32217 ft 461 kts 239°
2026-05-04 01:08 35.73935 -26.84445 32216 ft 461 kts 238°
2026-05-04 01:09 35.70457 -26.91041 32213 ft 461 kts 238°
2026-05-04 01:09 35.66952 -26.97675 32210 ft 461 kts 238°
2026-05-04 01:10 35.63460 -27.04271 32206 ft 462 kts 238°
2026-05-04 01:10 35.59944 -27.10900 32207 ft 462 kts 238°
2026-05-04 01:11 35.56430 -27.17513 32200 ft 462 kts 238°
2026-05-04 01:11 35.52924 -27.24100 32199 ft 463 kts 238°
2026-05-04 01:12 35.49410 -27.30686 32185 ft 461 kts 238°
2026-05-04 01:12 35.45889 -27.37276 32192 ft 463 kts 238°
2026-05-04 01:13 35.42349 -27.43887 32182 ft 462 kts 238°
2026-05-04 01:13 35.38827 -27.50452 32192 ft 462 kts 238°
2026-05-04 01:14 35.35272 -27.57069 32184 ft 464 kts 238°
2026-05-04 01:14 35.31736 -27.63635 32183 ft 460 kts 238°
2026-05-04 01:15 35.28209 -27.70175 32185 ft 463 kts 238°
2026-05-04 01:15 35.24644 -27.76768 32179 ft 461 kts 238°
2026-05-04 01:16 35.21106 -27.83306 32182 ft 466 kts 238°
2026-05-04 01:16 35.17522 -27.89910 32166 ft 463 kts 237°
2026-05-04 01:17 35.13961 -27.96462 32177 ft 466 kts 237°
2026-05-04 01:17 35.10386 -28.03026 32171 ft 465 kts 237°
2026-05-04 01:18 35.06801 -28.09599 32157 ft 464 kts 237°
2026-05-04 01:18 35.03198 -28.16190 32171 ft 468 kts 237°
2026-05-04 01:19 34.99579 -28.22798 32161 ft 465 kts 237°
2026-05-04 01:19 34.95985 -28.29348 32162 ft 469 kts 237°
2026-05-04 01:20 34.92364 -28.35938 32155 ft 467 kts 237°
2026-05-04 01:20 34.88726 -28.42545 32157 ft 469 kts 236°
2026-05-04 01:21 34.85099 -28.49119 32151 ft 469 kts 236°
2026-05-04 01:21 34.81445 -28.55728 32152 ft 470 kts 236°
2026-05-04 01:22 34.77809 -28.62294 32148 ft 470 kts 236°
2026-05-04 01:22 34.74147 -28.68896 32141 ft 470 kts 236°
2026-05-04 01:23 34.70482 -28.75489 32143 ft 470 kts 236°
2026-05-04 01:23 34.66826 -28.82055 32143 ft 471 kts 236°
2026-05-04 01:24 34.63139 -28.88665 32134 ft 471 kts 236°
2026-05-04 01:24 34.59444 -28.95276 32128 ft 473 kts 236°
2026-05-04 01:25 34.55768 -29.01840 32125 ft 472 kts 236°
2026-05-04 01:25 34.52066 -29.08440 32126 ft 471 kts 236°
2026-05-04 01:26 34.48375 -29.15007 32124 ft 472 kts 236°
2026-05-04 01:26 34.45287 -29.20493 32126 ft 473 kts 236°
2026-05-04 01:27 34.41583 -29.27060 32117 ft 473 kts 236°
2026-05-04 01:27 34.37867 -29.33639 32111 ft 473 kts 235°
2026-05-04 01:28 34.34150 -29.40207 32113 ft 473 kts 235°
2026-05-04 01:28 34.30440 -29.46749 32113 ft 473 kts 235°
2026-05-04 01:29 34.26701 -29.53331 32104 ft 473 kts 235°
2026-05-04 01:29 34.22958 -29.59909 32100 ft 473 kts 235°
2026-05-04 01:30 34.19234 -29.66440 32101 ft 474 kts 235°
2026-05-04 01:30 34.15513 -29.72957 32085 ft 473 kts 235°
2026-05-04 01:31 34.11759 -29.79518 32085 ft 474 kts 235°
2026-05-04 01:31 34.08025 -29.86033 32087 ft 474 kts 235°
2026-05-04 01:32 34.04257 -29.92596 32075 ft 474 kts 235°
2026-05-04 01:32 34.01767 -29.96929 32081 ft 474 kts 235°